Overview Statistics Trail Chart Weather Telemetry Raw packets
 

This is the latest recevied weather packets stored in our database for station/object WI0K. If no packets are shown the sender has not sent any weather packets the latest 10 day(s).

<< 109 110 111 112 113 114 115 >>
Time Temp. Humidity Pressure Rain* Wind** Luminosity Snow
1787838657 19.44° C 64% 836.6 hPa 0 mm - 209 W/m² -
1787838356 19.44° C 66% 836.6 hPa 0 mm - 192 W/m² -
1787838056 19.44° C 67% 1024.5 hPa 0 mm - 172 W/m² -
1787837755 18.89° C 66% 836.6 hPa 0 mm - 158 W/m² -
1787837455 18.89° C 65% 836.5 hPa 0 mm - 143 W/m² -
1787837154 18.33° C 66% 836.5 hPa 0 mm - 133 W/m² -
1787836853 17.78° C 68% 836.5 hPa 0 mm - 120 W/m² -
1787836553 17.22° C 72% 836.5 hPa 0 mm - 103 W/m² -
1787836252 16.67° C 74% 836.6 hPa 0 mm - 87 W/m² -
1787835951 16.67° C 76% 836.6 hPa 0 mm - 46 W/m² -
1787835650 16.67° C 76% 1024.4 hPa 0 mm - 34 W/m² -
1787835349 16.67° C 75% 1024.4 hPa 0 mm - 32 W/m² -
1787835048 16.67° C 75% 1024.4 hPa 0 mm - 24 W/m² -
1787834748 16.67° C 75% 836.4 hPa 0 mm - 23 W/m² -
1787834447 16.11° C 76% 836.3 hPa 0 mm - 18 W/m² -
1787834147 16.11° C 77% 1024.3 hPa 0 mm - 13 W/m² -
1787833846 16.11° C 76% 836.3 hPa 0 mm - 10 W/m² -
1787833545 16.11° C 77% 1024.2 hPa 0 mm - 6 W/m² -
1787833246 16.11° C 76% 836.3 hPa 0 mm - 3 W/m² -
1787832944 16.11° C 75% 1024.1 hPa 0 mm - 2 W/m² -
1787832643 16.11° C 75% 836.2 hPa 0 mm - 1 W/m² -
1787832343 16.11° C 75% 836.2 hPa 0 mm - 0 W/m² -
1787832042 16.11° C 75% 836.1 hPa 0 mm - 0 W/m² -
1787831741 16.11° C 75% 1023.8 hPa 0 mm - 0 W/m² -
1787831441 16.11° C 75% 836 hPa 0 mm - 0 W/m² -

* Rain latest hour (hover to see other rain measurements)
** Current wind speed in m/s (hover to see current wind gust speed)